User: anonymous
Location: Twentynine Palms Airport
(34.1316°N, 115.9458°W)
Time: 01:14:10
(UTC-07:00)
Language:

Oscar 19 - Orbit

View from above orbital plane
View from above orbital plane
View from above satellite
View from above satellite

Ground track
Ground track

The orbit data is extracted from the following two-line orbital elements,

1 20442U 90005G   14242.80901141  .00000057  00000-0  37018-4 0   382
2 20442 098.4807 179.1821 0010586 288.8031 071.2005 14.32580729285369
Epoch (UTC): 30 August 2014 19:24:58
Eccentricity: 0.0010586
inclination: 98.4807°
perigee height: 775 km
apogee height: 791 km
right ascension of ascending node: 179.1821°
argument of perigee: 288.8031°
revolutions per day: 14.32580729
mean anomaly at epoch: 71.2005°
orbit number at epoch: 28536

The dashed part of the orbit path shows where the satellite is in the earth's shadow,  

DLR